EW1033 Weather Reports


Display with metric or nautical units.
time (UTC)temp
F
wind
direction
speed
MPH
gust
MPH
rain 1hr
in
rain 24hr
in
rain mn
in
humidity
%
barometer
mb
20260506131557 51 0.0 0.0 0.00 0.00 0.00 86 1013.7
20260506130054 49 0.0 0.0 0.00 0.01 0.00 88 1013.5
20260506124549 48 0.0 0.0 0.00 0.01 0.00 88 1013.4
20260506123047 48 0.0 0.0 0.00 0.01 0.00 87 1013.3
20260506121545 48 0.0 0.0 0.00 0.01 0.00 87 1013.1
20260506120047 49 0.0 0.0 0.00 0.01 0.00 86 1012.9
20260506114544 49 0.0 0.0 0.00 0.01 0.00 85 1012.8
20260506113037 50 0.0 0.0 0.00 0.01 0.00 83 1012.7
20260506111540 51 0.0 0.0 0.00 0.01 0.00 82 1012.6
20260506110033 51 0.0 0.0 0.00 0.05 0.00 80 1012.5
20260506104529 52 0.0 0.0 0.00 0.05 0.00 80 1012.5
20260506103028 52 0.0 0.0 0.00 0.05 0.00 79 1012.3
20260506101526 53 0.0 0.0 0.00 0.05 0.00 79 1012.2
20260506100022 53 0.0 0.0 0.00 0.09 0.00 79 1012.0
20260506094521 53 0.0 0.0 0.00 0.09 0.00 77 1011.9
20260506093034 54 0.0 0.0 0.00 0.09 0.00 75 1011.9
20260506091518 54 0.0 0.0 0.00 0.09 0.00 74 1011.7
20260506090013 55 0.0 0.0 0.00 0.13 0.00 72 1011.7
20260506084515 56 0.0 0.0 0.00 0.13 0.00 69 1011.9
20260506083008 57 0.0 0.0 0.00 0.13 0.00 67 1011.8
20260506081508 58 0.0 0.0 0.00 0.13 0.00 64 1011.9
20260506073005 58 0.0 0.0 0.00 0.18 0.00 61 1012.0
20260506071600 58 0.0 0.0 0.00 0.18 0.00 61 1012.0
20260506061602 62 0.0 0.0 0.00 0.24 0.18 49 1011.4
20260506044601 64 0.0 0.0 0.00 0.26 0.18 49 1010.9
20260506043054 64 0.0 0.0 0.00 0.26 0.18 46 1010.8
20260506041605 64 0.0 0.0 0.00 0.26 0.18 44 1010.6
20260506040054 64 0.0 0.0 0.00 0.28 0.18 43 1010.2
20260506034550 65 0.0 0.0 0.00 0.28 0.18 41 1010.1
20260506033052 66 0.0 0.0 0.00 0.28 0.18 38 1009.9
20260506031549 66 0.0 0.0 0.00 0.28 0.18 38 1009.7
20260506030047 67 0.0 0.0 0.00 0.35 0.18 37 1009.6
20260506024547 67 0.0 0.0 0.00 0.35 0.18 36 1009.3
20260506023054 68 0.0 0.0 0.00 0.35 0.18 36 1009.0
20260506021546 69 0.0 0.0 0.00 0.35 0.18 35 1008.7
20260506020114 69 0.0 0.0 0.00 0.40 0.18 35 1008.5
20260506014544 71 0.0 0.0 0.00 0.40 0.18 34 1008.3
20260506013044 72 0.0 0.0 0.00 0.40 0.18 32 1008.2
20260506011548 73 0.0 0.0 0.00 0.40 0.18 29 1008.1
20260506010043 74 0.0 0.0 0.00 0.41 0.18 30 1007.8
20260506004545 74 0.0 0.0 0.00 0.41 0.18 29 1007.8
20260506003043 75 0.0 0.0 0.00 0.41 0.18 30 1007.6
20260506001548 76 0.0 0.0 0.00 0.41 0.18 31 1007.5
20260506000054 74 0.0 0.0 0.00 0.41 0.18 33 1007.5
20260505234542 75 0.0 0.0 0.00 0.41 0.18 30 1007.3
20260505233037 74 0.0 0.0 0.00 0.41 0.18 29 1007.3
20260505231538 75 0.0 0.0 0.00 0.41 0.18 28 1007.3
20260505230042 75 0.0 0.0 0.00 0.41 0.18 30 1007.4
20260505224543 76 0.0 0.0 0.00 0.41 0.18 31 1007.5
20260505223037 76 0.0 0.0 0.00 0.41 0.18 31 1007.4
20260505221529 75 0.0 0.0 0.00 0.41 0.18 28 1007.6
20260505220026 76 0.0 0.0 0.00 0.41 0.18 31 1007.8
20260505214525 76 0.0 0.0 0.00 0.41 0.18 33 1007.8
20260505213027 76 0.0 0.0 0.00 0.41 0.18 35 1007.9
20260505211529 74 0.0 0.0 0.00 0.41 0.18 39 1007.9
20260505210018 75 0.0 0.0 0.00 0.41 0.18 39 1008.0
20260505204514 71 0.0 0.0 0.00 0.41 0.18 42 1008.1
20260505203016 71 0.0 0.0 0.00 0.41 0.18 50 1008.2
20260505201512 70 0.0 0.0 0.00 0.41 0.18 53 1008.4
20260505200011 71 0.0 0.0 0.00 0.41 0.18 52 1008.6
20260505194509 70 0.0 0.0 0.00 0.41 0.18 54 1008.6
20260505193010 71 0.0 0.0 0.00 0.41 0.18 54 1008.7
20260505191512 72 0.0 0.0 0.00 0.41 0.18 54 1008.9
20260505190005 70 0.0 0.0 0.00 0.41 0.18 56 1009.1
20260505184504 69 0.0 0.0 0.00 0.41 0.18 61 1009.4
20260505183003 70 0.0 0.0 0.00 0.41 0.18 59 1009.4
20260505181641 67 0.0 0.0 0.00 0.41 0.18 63 1009.7
20260505180106 67 0.0 0.0 0.00 0.41 0.18 64 1009.8
20260505174557 67 0.0 0.0 0.00 0.41 0.18 65 1009.9
20260505173054 66 0.0 0.0 0.00 0.41 0.18 71 1009.9
20260505171600 65 0.0 0.0 0.00 0.41 0.18 71 1009.9
20260505170050 64 0.0 0.0 0.00 0.41 0.18 72 1009.8
20260505164548 64 0.0 0.0 0.00 0.41 0.18 74 1009.7
20260505163047 63 0.0 0.0 0.00 0.41 0.18 77 1009.9
20260505161546 63 0.0 0.0 0.00 0.41 0.18 82 1009.9
20260505153129 61 0.0 0.0 0.00 0.41 0.18 88 1009.7
20260505151526 60 0.0 0.0 0.00 0.41 0.18 89 1009.6